CZ-6A DEB

Satellite information

Favourite Embed

Satellite Type and Status

DEBRISIN ORBIT

Key statistics

Satellite CZ-6A DEB at a glance.

Uptime

389

Days in orbit

Revolutions

≈ 14.3

Per day

Orbit

LEO

Low Earth Orbit

Inclination

89.0

Latest

Satellite identification and parameters

Extended collection of information and parameters for CZ-6A DEB.

Object identification

Identified? True

Debris? True

Object name: CZ-6A DEB

International designator: 2024-140XZ

Object number (NORAD): 61408

Object ID (CCSDS): 61408

Country: PEOPLES REPUBLIC OF CHINA (PRC)

Current information (Y/N): Y

RCS size: SMALL

Orbital parameters

Period: 100.635 minutes

Inclination: 89.0255 deg

SMA: 7166.83 km

Apoapsis: 801.522 km

Periapsis: 775.869 km

RAAN: 308.2869 deg

Eccentricy: 0.00178969

Argument of periapsis: 29.199 deg

Mean anomaly: 331.0203 deg

Mean motion: 14.30909165 rev/day

Mean motion (dot): 0.00003612 rev/day2

B* drag term: 0.0013682824 1/REarth

Two-line elements (TLE)

Creation date: Aug. 27, 2025, 12:18 p.m.

Reference frame: TEME

Reference center: EARTH

Epoch: Aug. 27, 2025, 3:36 a.m. UTC

TLE line 0: 0 CZ-6A DEB

TLE line 1: 1 61408U 24140XZ 25239.15044109 .00003612 00000-0 13683-2 0 9990

TLE line 2: 2 61408 89.0255 308.2869 0017897 29.1990 331.0203 14.30909165 50126

Live tracking on map

Real-time ground track for satellite CZ-6A DEB.

In-orbit conjunctions

A list of the most updated potential collisions computed for object CZ-6A DEB.

Target Orbit TCA Probability of collision Miss distance Type
OSCAR 19 (LUSAT) SSO 2025-04-18 01:45:57 0.001292169 146.0 (m) PAYLOAD
COSMOS 886 DEB MEO 2024-12-16 02:12:06 0.0002265783 428.0 (m) DEBRIS
FENGYUN 1C DEB SSO 2024-11-08 02:40:49 0.000870489 91.0 (m) DEBRIS
CZ-6A DEB SSO 2024-10-07 19:34:34 0.0002191441 149.0 (m) DEBRIS
FENGYUN 1C DEB SSO 2024-09-30 16:39:17 0.0002017599 576.0 (m) DEBRIS

Associated space launch

18 Low Earth Orbit communication satellites with Ku, Q and V band payloads for the G60 constellation operated by Shanghai Spacecom Satellite Technology (SSST) with funding backed by the Shanghai local government. Initial constellation will consist of 1296 satellites by 2027 with long term plans to expand it to 12000 satellites.

CZ-6A DEB was lifted into orbit during the mission ‘Long March 6A | G60 Polar Group 01’, on board a Long March 6A space rocket.

The launch took place on Aug. 6, 2024, 6:42 a.m. from Launch Complex 9A.

For more information about the launch, click the button.

Launch to space Long March 6A | G60 Polar Group 01
Long March 6A | G60 Polar Group 01

Agency: N/A

Status: Launch Successful

Launch date: Aug. 6, 2024, 6:42 a.m. UTC

Rocket: Long March 6A

Launch pad: Launch Complex 9A

Location: Taiyuan Satellite Launch Center, People's Republic of China

...

Latest news about this satellite

News about space launch
Brightness of first Chinese broadband constellation satellites alarms astronomers

The first satellites of a Chinese broadband constellation are significantly brighter than those of Western systems, posing a new challenge for astronomers.

News about space launch
Chinese rocket stage breaks up into cloud of more than 700 pieces of space debris

HELSINKI — A Chinese Long March 6A rocket’s upper stage has fragmented into a cloud of over 700 pieces of space debris, adding to concerns about long-term orbital safety. China […]

News about space launch
China's Thousand Sails Megaconstellation Kicks Off with Dangerous Debris Field

China's Thousand Sails Megaconstellation Kicks Off with Dangerous Debris Field


Newsletter sign-up

Weekly statistics, charts and insights to help you stay on top of the space industry.